KUIPER-00062

导读 | 豆包AI

KUIPER-00062是美国亚马逊公司“柯伊伯计划”卫星互联网星座中的一颗量产卫星,于2025年6月23日发射入轨。该星座计划在近地轨道部署3236颗卫星,旨在为全球提供高速宽带互联网接入服务,卫星配备多波束相控阵天线,支持灵活容量分配,可实现高速网络传输,助力全球网络覆盖。

Basic Information
目录编号:
64522
目录名称:
KUIPER-00062
国际标识:
2025-134Y
轨道中心:
EARTH
卫星名称:
KUIPER-00062
卫星全名:
KUIPER-00062
卫星状态:
在轨 (已飞行310 天)
发射日期:
2025-06-23 UTC
国别 :
美国 (US)
星等 :
--
Orbit Information
数据来源 国际轨道数据 AOE轨道数据
星历时间 2026-04-29T05:00:16+0800
3小时前
查看轨道信息
2026-04-27T17:00:00+0800
1天前
查看轨道信息
半长轴 7007.689km 7007.655km
偏心率 0.0000672 0.0002622
轨道倾角 51.898° 51.899°
近地点辐角 101.602° 27.718°
升交点赤经 8.683° 15.323°
平近点角 258.502° 254.954°
近地点 629.081km 627.68km
远地点 630.023km 631.356km
周期 97.302分钟 97.301分钟
每日圈数 14.799281 14.799387
Detailed Information
使用方式:
暂无
2D Orbit Map
3D Orbit Map
Orbit Altitude Analysis Chart
Orbit Inclination Analysis Chart
Orbit Comprehensive Analysis Chart
View Comprehensive Chart